<?xml version="1.0" encoding="UTF-8" standalone="no" ?>
<gpx xmlns="http://www.topografix.com/GPX/1/1" xmlns:xsi="http://www.w3.org/2001/XMLSchema-instance" xsi:schemaLocation="http://www.topografix.com/GPX/1/1 http://www.topografix.com/GPX/1/1/gpx.xsd" version="1.1" creator="VisuGPX - https://www.visugpx.com">
  <metadata>
    <name>Etape_07,_Le_Pin,_La_Cote_St_André,_29_km</name>
    <desc><![CDATA[<html dir="ltr"><head></head><body contenteditable="true">comment ...</body></html>]]></desc>
  </metadata>
  <trk>
    <name><![CDATA[Etape 07, Le Pin, La Cote St André, 29 km]]></name>
    <desc><![CDATA[<html dir="ltr"><head></head><body contenteditable="true">comment ...</body></html>]]></desc>
    <extensions>
      <line xmlns="http://www.topografix.com/GPX/gpx_style/0/2">
        <color>0000FF</color>
        <width>4</width>
      </line>
    </extensions>
    <trkseg>
      <trkpt lat="45.47" lon="5.52655">
        <ele>458</ele>
        <time>2022-10-26T15:42:26Z</time>
      </trkpt>
      <trkpt lat="45.47002" lon="5.52721">
        <ele>458</ele>
        <time>2022-10-26T15:42:26Z</time>
      </trkpt>
      <trkpt lat="45.46907" lon="5.52739">
        <ele>458</ele>
        <time>2022-10-26T15:42:26Z</time>
      </trkpt>
      <trkpt lat="45.46844" lon="5.52786">
        <ele>458</ele>
        <time>2022-10-26T15:42:26Z</time>
      </trkpt>
      <trkpt lat="45.46767" lon="5.52732">
        <ele>458</ele>
        <time>2022-10-26T15:42:26Z</time>
      </trkpt>
      <trkpt lat="45.46743" lon="5.52726">
        <ele>458</ele>
        <time>2022-10-26T15:42:26Z</time>
      </trkpt>
      <trkpt lat="45.46711" lon="5.52666">
        <ele>458</ele>
        <time>2022-10-26T15:42:26Z</time>
      </trkpt>
      <trkpt lat="45.46525" lon="5.52651">
        <ele>458</ele>
        <time>2022-10-26T15:42:26Z</time>
      </trkpt>
      <trkpt lat="45.46486" lon="5.52554">
        <ele>458</ele>
        <time>2022-10-26T15:42:26Z</time>
      </trkpt>
      <trkpt lat="45.46502" lon="5.52477">
        <ele>458</ele>
        <time>2022-10-26T15:42:26Z</time>
      </trkpt>
      <trkpt lat="45.46495" lon="5.52447">
        <ele>458</ele>
        <time>2022-10-26T15:42:26Z</time>
      </trkpt>
      <trkpt lat="45.46429" lon="5.52428">
        <ele>458</ele>
        <time>2022-10-26T15:42:26Z</time>
      </trkpt>
      <trkpt lat="45.46367" lon="5.5237">
        <ele>458</ele>
        <time>2022-10-26T15:42:26Z</time>
      </trkpt>
      <trkpt lat="45.46343" lon="5.5232">
        <ele>458</ele>
        <time>2022-10-26T15:42:26Z</time>
      </trkpt>
      <trkpt lat="45.46344" lon="5.52252">
        <ele>458</ele>
        <time>2022-10-26T15:42:26Z</time>
      </trkpt>
      <trkpt lat="45.4632" lon="5.522">
        <ele>458</ele>
        <time>2022-10-26T15:42:26Z</time>
      </trkpt>
      <trkpt lat="45.46307" lon="5.52134">
        <ele>458</ele>
        <time>2022-10-26T15:42:26Z</time>
      </trkpt>
      <trkpt lat="45.46256" lon="5.52123">
        <ele>458</ele>
        <time>2022-10-26T15:42:26Z</time>
      </trkpt>
      <trkpt lat="45.46207" lon="5.52142">
        <ele>458</ele>
        <time>2022-10-26T15:42:26Z</time>
      </trkpt>
      <trkpt lat="45.46108" lon="5.52279">
        <ele>458</ele>
        <time>2022-10-26T15:42:26Z</time>
      </trkpt>
      <trkpt lat="45.4607" lon="5.52419">
        <ele>458</ele>
        <time>2022-10-26T15:42:26Z</time>
      </trkpt>
      <trkpt lat="45.45985" lon="5.52408">
        <ele>458</ele>
        <time>2022-10-26T15:42:26Z</time>
      </trkpt>
      <trkpt lat="45.45948" lon="5.52402">
        <ele>458</ele>
        <time>2022-10-26T15:42:26Z</time>
      </trkpt>
      <trkpt lat="45.45932" lon="5.52357">
        <ele>458</ele>
        <time>2022-10-26T15:42:26Z</time>
      </trkpt>
      <trkpt lat="45.45836" lon="5.52282">
        <ele>458</ele>
        <time>2022-10-26T15:42:26Z</time>
      </trkpt>
      <trkpt lat="45.45759" lon="5.52271">
        <ele>458</ele>
        <time>2022-10-26T15:42:26Z</time>
      </trkpt>
      <trkpt lat="45.45697" lon="5.52222">
        <ele>458</ele>
        <time>2022-10-26T15:42:26Z</time>
      </trkpt>
      <trkpt lat="45.45629" lon="5.52155">
        <ele>458</ele>
        <time>2022-10-26T15:42:26Z</time>
      </trkpt>
      <trkpt lat="45.4561" lon="5.52121">
        <ele>458</ele>
        <time>2022-10-26T15:42:26Z</time>
      </trkpt>
      <trkpt lat="45.45598" lon="5.51947">
        <ele>458</ele>
        <time>2022-10-26T15:42:26Z</time>
      </trkpt>
      <trkpt lat="45.45611" lon="5.5184">
        <ele>458</ele>
        <time>2022-10-26T15:42:26Z</time>
      </trkpt>
      <trkpt lat="45.45604" lon="5.51773">
        <ele>458</ele>
        <time>2022-10-26T15:42:26Z</time>
      </trkpt>
      <trkpt lat="45.45623" lon="5.51689">
        <ele>458</ele>
        <time>2022-10-26T15:42:26Z</time>
      </trkpt>
      <trkpt lat="45.45684" lon="5.51621">
        <ele>458</ele>
        <time>2022-10-26T15:42:26Z</time>
      </trkpt>
      <trkpt lat="45.45687" lon="5.51598">
        <ele>458</ele>
        <time>2022-10-26T15:42:26Z</time>
      </trkpt>
      <trkpt lat="45.45691" lon="5.51576">
        <ele>458</ele>
        <time>2022-10-26T15:42:26Z</time>
      </trkpt>
      <trkpt lat="45.45756" lon="5.51563">
        <ele>458</ele>
        <time>2022-10-26T15:42:26Z</time>
      </trkpt>
      <trkpt lat="45.45848" lon="5.51494">
        <ele>458</ele>
        <time>2022-10-26T15:42:26Z</time>
      </trkpt>
      <trkpt lat="45.4584" lon="5.51458">
        <ele>458</ele>
        <time>2022-10-26T15:42:26Z</time>
      </trkpt>
      <trkpt lat="45.45827" lon="5.51408">
        <ele>458</ele>
        <time>2022-10-26T15:42:26Z</time>
      </trkpt>
      <trkpt lat="45.45796" lon="5.51374">
        <ele>458</ele>
        <time>2022-10-26T15:42:26Z</time>
      </trkpt>
      <trkpt lat="45.4579" lon="5.51325">
        <ele>458</ele>
        <time>2022-10-26T15:42:26Z</time>
      </trkpt>
      <trkpt lat="45.45763" lon="5.51284">
        <ele>458</ele>
        <time>2022-10-26T15:42:26Z</time>
      </trkpt>
      <trkpt lat="45.45699" lon="5.51222">
        <ele>458</ele>
        <time>2022-10-26T15:42:26Z</time>
      </trkpt>
      <trkpt lat="45.45691" lon="5.51189">
        <ele>458</ele>
        <time>2022-10-26T15:42:26Z</time>
      </trkpt>
      <trkpt lat="45.45796" lon="5.5099">
        <ele>458</ele>
        <time>2022-10-26T15:42:26Z</time>
      </trkpt>
      <trkpt lat="45.45802" lon="5.50945">
        <ele>458</ele>
        <time>2022-10-26T15:42:26Z</time>
      </trkpt>
      <trkpt lat="45.45753" lon="5.50898">
        <ele>458</ele>
        <time>2022-10-26T15:42:26Z</time>
      </trkpt>
      <trkpt lat="45.45696" lon="5.50786">
        <ele>458</ele>
        <time>2022-10-26T15:42:26Z</time>
      </trkpt>
      <trkpt lat="45.45661" lon="5.50548">
        <ele>458</ele>
        <time>2022-10-26T15:42:26Z</time>
      </trkpt>
      <trkpt lat="45.45656" lon="5.50483">
        <ele>458</ele>
        <time>2022-10-26T15:42:26Z</time>
      </trkpt>
      <trkpt lat="45.45655" lon="5.50456">
        <ele>458</ele>
        <time>2022-10-26T15:42:26Z</time>
      </trkpt>
      <trkpt lat="45.45583" lon="5.50315">
        <ele>458</ele>
        <time>2022-10-26T15:42:26Z</time>
      </trkpt>
      <trkpt lat="45.45541" lon="5.50266">
        <ele>458</ele>
        <time>2022-10-26T15:42:26Z</time>
      </trkpt>
      <trkpt lat="45.45446" lon="5.50121">
        <ele>458</ele>
        <time>2022-10-26T15:42:26Z</time>
      </trkpt>
      <trkpt lat="45.45393" lon="5.50045">
        <ele>458</ele>
        <time>2022-10-26T15:42:26Z</time>
      </trkpt>
      <trkpt lat="45.45327" lon="5.49927">
        <ele>458</ele>
        <time>2022-10-26T15:42:26Z</time>
      </trkpt>
      <trkpt lat="45.45316" lon="5.49904">
        <ele>458</ele>
        <time>2022-10-26T15:42:26Z</time>
      </trkpt>
      <trkpt lat="45.45307" lon="5.49873">
        <ele>458</ele>
        <time>2022-10-26T15:42:26Z</time>
      </trkpt>
      <trkpt lat="45.45293" lon="5.49787">
        <ele>458</ele>
        <time>2022-10-26T15:42:26Z</time>
      </trkpt>
      <trkpt lat="45.45243" lon="5.49689">
        <ele>458</ele>
        <time>2022-10-26T15:42:26Z</time>
      </trkpt>
      <trkpt lat="45.45222" lon="5.49657">
        <ele>458</ele>
        <time>2022-10-26T15:42:26Z</time>
      </trkpt>
      <trkpt lat="45.45148" lon="5.49585">
        <ele>458</ele>
        <time>2022-10-26T15:42:26Z</time>
      </trkpt>
      <trkpt lat="45.45144" lon="5.49554">
        <ele>458</ele>
        <time>2022-10-26T15:42:26Z</time>
      </trkpt>
      <trkpt lat="45.45138" lon="5.49511">
        <ele>458</ele>
        <time>2022-10-26T15:42:26Z</time>
      </trkpt>
      <trkpt lat="45.45132" lon="5.49486">
        <ele>458</ele>
        <time>2022-10-26T15:42:26Z</time>
      </trkpt>
      <trkpt lat="45.45122" lon="5.49464">
        <ele>458</ele>
        <time>2022-10-26T15:42:26Z</time>
      </trkpt>
      <trkpt lat="45.45089" lon="5.49434">
        <ele>458</ele>
        <time>2022-10-26T15:42:26Z</time>
      </trkpt>
      <trkpt lat="45.45043" lon="5.49377">
        <ele>458</ele>
        <time>2022-10-26T15:42:26Z</time>
      </trkpt>
      <trkpt lat="45.45022" lon="5.49358">
        <ele>458</ele>
        <time>2022-10-26T15:42:26Z</time>
      </trkpt>
      <trkpt lat="45.45002" lon="5.49345">
        <ele>458</ele>
        <time>2022-10-26T15:42:26Z</time>
      </trkpt>
      <trkpt lat="45.44993" lon="5.49338">
        <ele>458</ele>
        <time>2022-10-26T15:42:26Z</time>
      </trkpt>
      <trkpt lat="45.44977" lon="5.49288">
        <ele>458</ele>
        <time>2022-10-26T15:42:26Z</time>
      </trkpt>
      <trkpt lat="45.44946" lon="5.49251">
        <ele>458</ele>
        <time>2022-10-26T15:42:26Z</time>
      </trkpt>
      <trkpt lat="45.44922" lon="5.49192">
        <ele>458</ele>
        <time>2022-10-26T15:42:26Z</time>
      </trkpt>
      <trkpt lat="45.44906" lon="5.49084">
        <ele>458</ele>
        <time>2022-10-26T15:42:26Z</time>
      </trkpt>
      <trkpt lat="45.44774" lon="5.48787">
        <ele>458</ele>
        <time>2022-10-26T15:42:26Z</time>
      </trkpt>
      <trkpt lat="45.44739" lon="5.48727">
        <ele>458</ele>
        <time>2022-10-26T15:42:26Z</time>
      </trkpt>
      <trkpt lat="45.4473" lon="5.48691">
        <ele>458</ele>
        <time>2022-10-26T15:42:26Z</time>
      </trkpt>
      <trkpt lat="45.44676" lon="5.48571">
        <ele>458</ele>
        <time>2022-10-26T15:42:26Z</time>
      </trkpt>
      <trkpt lat="45.44654" lon="5.48495">
        <ele>458</ele>
        <time>2022-10-26T15:42:26Z</time>
      </trkpt>
      <trkpt lat="45.44657" lon="5.48461">
        <ele>458</ele>
        <time>2022-10-26T15:42:26Z</time>
      </trkpt>
      <trkpt lat="45.44637" lon="5.48401">
        <ele>458</ele>
        <time>2022-10-26T15:42:26Z</time>
      </trkpt>
      <trkpt lat="45.44599" lon="5.48414">
        <ele>458</ele>
        <time>2022-10-26T15:42:26Z</time>
      </trkpt>
      <trkpt lat="45.44541" lon="5.48364">
        <ele>458</ele>
        <time>2022-10-26T15:42:26Z</time>
      </trkpt>
      <trkpt lat="45.44526" lon="5.48331">
        <ele>458</ele>
        <time>2022-10-26T15:42:26Z</time>
      </trkpt>
      <trkpt lat="45.44508" lon="5.48264">
        <ele>458</ele>
        <time>2022-10-26T15:42:26Z</time>
      </trkpt>
      <trkpt lat="45.44506" lon="5.48168">
        <ele>458</ele>
        <time>2022-10-26T15:42:26Z</time>
      </trkpt>
      <trkpt lat="45.44442" lon="5.48137">
        <ele>458</ele>
        <time>2022-10-26T15:42:26Z</time>
      </trkpt>
      <trkpt lat="45.44354" lon="5.47962">
        <ele>458</ele>
        <time>2022-10-26T15:42:26Z</time>
      </trkpt>
      <trkpt lat="45.44321" lon="5.47935">
        <ele>458</ele>
        <time>2022-10-26T15:42:26Z</time>
      </trkpt>
      <trkpt lat="45.44267" lon="5.47902">
        <ele>458</ele>
        <time>2022-10-26T15:42:26Z</time>
      </trkpt>
      <trkpt lat="45.44249" lon="5.47866">
        <ele>458</ele>
        <time>2022-10-26T15:42:26Z</time>
      </trkpt>
      <trkpt lat="45.4422" lon="5.47836">
        <ele>458</ele>
        <time>2022-10-26T15:42:26Z</time>
      </trkpt>
      <trkpt lat="45.44182" lon="5.47838">
        <ele>458</ele>
        <time>2022-10-26T15:42:26Z</time>
      </trkpt>
      <trkpt lat="45.44146" lon="5.4781">
        <ele>458</ele>
        <time>2022-10-26T15:42:26Z</time>
      </trkpt>
      <trkpt lat="45.44129" lon="5.47787">
        <ele>458</ele>
        <time>2022-10-26T15:42:26Z</time>
      </trkpt>
      <trkpt lat="45.44125" lon="5.47754">
        <ele>458</ele>
        <time>2022-10-26T15:42:26Z</time>
      </trkpt>
      <trkpt lat="45.44125" lon="5.47738">
        <ele>458</ele>
        <time>2022-10-26T15:42:26Z</time>
      </trkpt>
      <trkpt lat="45.44094" lon="5.477">
        <ele>458</ele>
        <time>2022-10-26T15:42:26Z</time>
      </trkpt>
      <trkpt lat="45.44051" lon="5.47679">
        <ele>458</ele>
        <time>2022-10-26T15:42:26Z</time>
      </trkpt>
      <trkpt lat="45.44024" lon="5.47697">
        <ele>458</ele>
        <time>2022-10-26T15:42:26Z</time>
      </trkpt>
      <trkpt lat="45.44003" lon="5.47697">
        <ele>458</ele>
        <time>2022-10-26T15:42:26Z</time>
      </trkpt>
      <trkpt lat="45.43998" lon="5.47711">
        <ele>458</ele>
        <time>2022-10-26T15:42:26Z</time>
      </trkpt>
      <trkpt lat="45.43945" lon="5.47668">
        <ele>458</ele>
        <time>2022-10-26T15:42:26Z</time>
      </trkpt>
      <trkpt lat="45.43759" lon="5.47605">
        <ele>458</ele>
        <time>2022-10-26T15:42:26Z</time>
      </trkpt>
      <trkpt lat="45.43673" lon="5.47558">
        <ele>458</ele>
        <time>2022-10-26T15:42:26Z</time>
      </trkpt>
      <trkpt lat="45.43564" lon="5.47508">
        <ele>458</ele>
        <time>2022-10-26T15:42:26Z</time>
      </trkpt>
      <trkpt lat="45.43512" lon="5.47473">
        <ele>458</ele>
        <time>2022-10-26T15:42:26Z</time>
      </trkpt>
      <trkpt lat="45.43473" lon="5.47402">
        <ele>458</ele>
        <time>2022-10-26T15:42:26Z</time>
      </trkpt>
      <trkpt lat="45.43402" lon="5.47324">
        <ele>458</ele>
        <time>2022-10-26T15:42:26Z</time>
      </trkpt>
      <trkpt lat="45.43386" lon="5.47286">
        <ele>458</ele>
        <time>2022-10-26T15:42:26Z</time>
      </trkpt>
      <trkpt lat="45.4336" lon="5.47227">
        <ele>458</ele>
        <time>2022-10-26T15:42:26Z</time>
      </trkpt>
      <trkpt lat="45.43333" lon="5.47198">
        <ele>458</ele>
        <time>2022-10-26T15:42:26Z</time>
      </trkpt>
      <trkpt lat="45.43306" lon="5.47166">
        <ele>458</ele>
        <time>2022-10-26T15:42:26Z</time>
      </trkpt>
      <trkpt lat="45.43296" lon="5.47148">
        <ele>458</ele>
        <time>2022-10-26T15:42:26Z</time>
      </trkpt>
      <trkpt lat="45.43279" lon="5.46974">
        <ele>458</ele>
        <time>2022-10-26T15:42:26Z</time>
      </trkpt>
      <trkpt lat="45.43275" lon="5.46954">
        <ele>458</ele>
        <time>2022-10-26T15:42:26Z</time>
      </trkpt>
      <trkpt lat="45.43256" lon="5.46905">
        <ele>458</ele>
        <time>2022-10-26T15:42:26Z</time>
      </trkpt>
      <trkpt lat="45.43244" lon="5.46831">
        <ele>458</ele>
        <time>2022-10-26T15:42:26Z</time>
      </trkpt>
      <trkpt lat="45.43237" lon="5.46807">
        <ele>458</ele>
        <time>2022-10-26T15:42:26Z</time>
      </trkpt>
      <trkpt lat="45.43223" lon="5.46754">
        <ele>458</ele>
        <time>2022-10-26T15:42:26Z</time>
      </trkpt>
      <trkpt lat="45.43208" lon="5.4673">
        <ele>458</ele>
        <time>2022-10-26T15:42:26Z</time>
      </trkpt>
      <trkpt lat="45.43179" lon="5.46677">
        <ele>458</ele>
        <time>2022-10-26T15:42:26Z</time>
      </trkpt>
      <trkpt lat="45.43152" lon="5.46625">
        <ele>458</ele>
        <time>2022-10-26T15:42:26Z</time>
      </trkpt>
      <trkpt lat="45.43138" lon="5.466">
        <ele>458</ele>
        <time>2022-10-26T15:42:26Z</time>
      </trkpt>
      <trkpt lat="45.43115" lon="5.46539">
        <ele>458</ele>
        <time>2022-10-26T15:42:26Z</time>
      </trkpt>
      <trkpt lat="45.431" lon="5.46479">
        <ele>458</ele>
        <time>2022-10-26T15:42:26Z</time>
      </trkpt>
      <trkpt lat="45.4307" lon="5.46467">
        <ele>458</ele>
        <time>2022-10-26T15:42:26Z</time>
      </trkpt>
      <trkpt lat="45.4301" lon="5.46444">
        <ele>458</ele>
        <time>2022-10-26T15:42:26Z</time>
      </trkpt>
      <trkpt lat="45.42941" lon="5.4642">
        <ele>458</ele>
        <time>2022-10-26T15:42:26Z</time>
      </trkpt>
      <trkpt lat="45.42845" lon="5.46408">
        <ele>458</ele>
        <time>2022-10-26T15:42:26Z</time>
      </trkpt>
      <trkpt lat="45.42796" lon="5.46414">
        <ele>458</ele>
        <time>2022-10-26T15:42:26Z</time>
      </trkpt>
      <trkpt lat="45.42691" lon="5.46432">
        <ele>458</ele>
        <time>2022-10-26T15:42:26Z</time>
      </trkpt>
      <trkpt lat="45.42663" lon="5.46433">
        <ele>458</ele>
        <time>2022-10-26T15:42:26Z</time>
      </trkpt>
      <trkpt lat="45.42625" lon="5.46429">
        <ele>458</ele>
        <time>2022-10-26T15:42:26Z</time>
      </trkpt>
      <trkpt lat="45.42616" lon="5.46421">
        <ele>458</ele>
        <time>2022-10-26T15:42:26Z</time>
      </trkpt>
      <trkpt lat="45.4262" lon="5.4638">
        <ele>458</ele>
        <time>2022-10-26T15:42:26Z</time>
      </trkpt>
      <trkpt lat="45.42632" lon="5.46306">
        <ele>458</ele>
        <time>2022-10-26T15:42:26Z</time>
      </trkpt>
      <trkpt lat="45.42647" lon="5.46232">
        <ele>458</ele>
        <time>2022-10-26T15:42:26Z</time>
      </trkpt>
      <trkpt lat="45.42656" lon="5.46163">
        <ele>458</ele>
        <time>2022-10-26T15:42:26Z</time>
      </trkpt>
      <trkpt lat="45.42658" lon="5.46069">
        <ele>458</ele>
        <time>2022-10-26T15:42:26Z</time>
      </trkpt>
      <trkpt lat="45.42657" lon="5.46032">
        <ele>458</ele>
        <time>2022-10-26T15:42:26Z</time>
      </trkpt>
      <trkpt lat="45.42647" lon="5.45961">
        <ele>458</ele>
        <time>2022-10-26T15:42:26Z</time>
      </trkpt>
      <trkpt lat="45.42642" lon="5.45894">
        <ele>458</ele>
        <time>2022-10-26T15:42:26Z</time>
      </trkpt>
      <trkpt lat="45.42633" lon="5.45839">
        <ele>458</ele>
        <time>2022-10-26T15:42:26Z</time>
      </trkpt>
      <trkpt lat="45.42623" lon="5.45768">
        <ele>458</ele>
        <time>2022-10-26T15:42:26Z</time>
      </trkpt>
      <trkpt lat="45.4262" lon="5.45718">
        <ele>458</ele>
        <time>2022-10-26T15:42:26Z</time>
      </trkpt>
      <trkpt lat="45.42619" lon="5.45666">
        <ele>458</ele>
        <time>2022-10-26T15:42:26Z</time>
      </trkpt>
      <trkpt lat="45.42485" lon="5.45669">
        <ele>458</ele>
        <time>2022-10-26T15:42:26Z</time>
      </trkpt>
      <trkpt lat="45.4239" lon="5.4548">
        <ele>458</ele>
        <time>2022-10-26T15:42:26Z</time>
      </trkpt>
      <trkpt lat="45.42359" lon="5.45406">
        <ele>458</ele>
        <time>2022-10-26T15:42:26Z</time>
      </trkpt>
      <trkpt lat="45.42301" lon="5.45322">
        <ele>458</ele>
        <time>2022-10-26T15:42:26Z</time>
      </trkpt>
      <trkpt lat="45.42244" lon="5.45287">
        <ele>458</ele>
        <time>2022-10-26T15:42:26Z</time>
      </trkpt>
      <trkpt lat="45.42178" lon="5.45285">
        <ele>458</ele>
        <time>2022-10-26T15:42:26Z</time>
      </trkpt>
      <trkpt lat="45.42158" lon="5.45276">
        <ele>458</ele>
        <time>2022-10-26T15:42:26Z</time>
      </trkpt>
      <trkpt lat="45.42136" lon="5.45222">
        <ele>458</ele>
        <time>2022-10-26T15:42:26Z</time>
      </trkpt>
      <trkpt lat="45.42122" lon="5.45166">
        <ele>458</ele>
        <time>2022-10-26T15:42:26Z</time>
      </trkpt>
      <trkpt lat="45.42122" lon="5.4514">
        <ele>458</ele>
        <time>2022-10-26T15:42:26Z</time>
      </trkpt>
      <trkpt lat="45.42109" lon="5.45083">
        <ele>458</ele>
        <time>2022-10-26T15:42:26Z</time>
      </trkpt>
      <trkpt lat="45.42101" lon="5.45065">
        <ele>458</ele>
        <time>2022-10-26T15:42:26Z</time>
      </trkpt>
      <trkpt lat="45.42061" lon="5.45016">
        <ele>458</ele>
        <time>2022-10-26T15:42:26Z</time>
      </trkpt>
      <trkpt lat="45.42055" lon="5.44993">
        <ele>458</ele>
        <time>2022-10-26T15:42:26Z</time>
      </trkpt>
      <trkpt lat="45.42054" lon="5.44975">
        <ele>458</ele>
        <time>2022-10-26T15:42:26Z</time>
      </trkpt>
      <trkpt lat="45.42059" lon="5.44929">
        <ele>458</ele>
        <time>2022-10-26T15:42:26Z</time>
      </trkpt>
      <trkpt lat="45.42057" lon="5.44904">
        <ele>458</ele>
        <time>2022-10-26T15:42:26Z</time>
      </trkpt>
      <trkpt lat="45.42043" lon="5.44881">
        <ele>458</ele>
        <time>2022-10-26T15:42:26Z</time>
      </trkpt>
      <trkpt lat="45.42028" lon="5.44863">
        <ele>458</ele>
        <time>2022-10-26T15:42:26Z</time>
      </trkpt>
      <trkpt lat="45.41987" lon="5.44838">
        <ele>458</ele>
        <time>2022-10-26T15:42:26Z</time>
      </trkpt>
      <trkpt lat="45.41967" lon="5.44812">
        <ele>458</ele>
        <time>2022-10-26T15:42:26Z</time>
      </trkpt>
      <trkpt lat="45.41918" lon="5.44694">
        <ele>458</ele>
        <time>2022-10-26T15:42:26Z</time>
      </trkpt>
      <trkpt lat="45.41882" lon="5.44516">
        <ele>458</ele>
        <time>2022-10-26T15:42:26Z</time>
      </trkpt>
      <trkpt lat="45.41875" lon="5.44486">
        <ele>458</ele>
        <time>2022-10-26T15:42:26Z</time>
      </trkpt>
      <trkpt lat="45.41872" lon="5.4446">
        <ele>458</ele>
        <time>2022-10-26T15:42:26Z</time>
      </trkpt>
      <trkpt lat="45.41872" lon="5.4444">
        <ele>458</ele>
        <time>2022-10-26T15:42:26Z</time>
      </trkpt>
      <trkpt lat="45.41879" lon="5.4442">
        <ele>458</ele>
        <time>2022-10-26T15:42:26Z</time>
      </trkpt>
      <trkpt lat="45.41824" lon="5.4431">
        <ele>458</ele>
        <time>2022-10-26T15:42:26Z</time>
      </trkpt>
      <trkpt lat="45.41769" lon="5.44219">
        <ele>458</ele>
        <time>2022-10-26T15:42:26Z</time>
      </trkpt>
      <trkpt lat="45.41695" lon="5.44077">
        <ele>458</ele>
        <time>2022-10-26T15:42:26Z</time>
      </trkpt>
      <trkpt lat="45.41661" lon="5.44034">
        <ele>458</ele>
        <time>2022-10-26T15:42:26Z</time>
      </trkpt>
      <trkpt lat="45.41619" lon="5.43983">
        <ele>458</ele>
        <time>2022-10-26T15:42:26Z</time>
      </trkpt>
      <trkpt lat="45.41589" lon="5.43939">
        <ele>458</ele>
        <time>2022-10-26T15:42:26Z</time>
      </trkpt>
      <trkpt lat="45.41573" lon="5.43905">
        <ele>458</ele>
        <time>2022-10-26T15:42:26Z</time>
      </trkpt>
      <trkpt lat="45.41561" lon="5.43844">
        <ele>458</ele>
        <time>2022-10-26T15:42:26Z</time>
      </trkpt>
      <trkpt lat="45.41553" lon="5.4379">
        <ele>458</ele>
        <time>2022-10-26T15:42:26Z</time>
      </trkpt>
      <trkpt lat="45.4155" lon="5.43689">
        <ele>458</ele>
        <time>2022-10-26T15:42:26Z</time>
      </trkpt>
      <trkpt lat="45.4158" lon="5.43554">
        <ele>458</ele>
        <time>2022-10-26T15:42:26Z</time>
      </trkpt>
      <trkpt lat="45.41587" lon="5.43521">
        <ele>458</ele>
        <time>2022-10-26T15:42:26Z</time>
      </trkpt>
      <trkpt lat="45.4159" lon="5.43495">
        <ele>458</ele>
        <time>2022-10-26T15:42:26Z</time>
      </trkpt>
      <trkpt lat="45.41585" lon="5.43476">
        <ele>458</ele>
        <time>2022-10-26T15:42:26Z</time>
      </trkpt>
      <trkpt lat="45.41543" lon="5.43488">
        <ele>458</ele>
        <time>2022-10-26T15:42:26Z</time>
      </trkpt>
      <trkpt lat="45.41501" lon="5.43478">
        <ele>458</ele>
        <time>2022-10-26T15:42:26Z</time>
      </trkpt>
      <trkpt lat="45.41451" lon="5.43485">
        <ele>458</ele>
        <time>2022-10-26T15:42:26Z</time>
      </trkpt>
      <trkpt lat="45.41368" lon="5.43499">
        <ele>458</ele>
        <time>2022-10-26T15:42:26Z</time>
      </trkpt>
      <trkpt lat="45.41344" lon="5.43524">
        <ele>458</ele>
        <time>2022-10-26T15:42:26Z</time>
      </trkpt>
      <trkpt lat="45.41294" lon="5.43634">
        <ele>458</ele>
        <time>2022-10-26T15:42:26Z</time>
      </trkpt>
      <trkpt lat="45.41274" lon="5.43653">
        <ele>458</ele>
        <time>2022-10-26T15:42:26Z</time>
      </trkpt>
      <trkpt lat="45.41202" lon="5.43697">
        <ele>458</ele>
        <time>2022-10-26T15:42:26Z</time>
      </trkpt>
      <trkpt lat="45.41177" lon="5.43692">
        <ele>458</ele>
        <time>2022-10-26T15:42:26Z</time>
      </trkpt>
      <trkpt lat="45.41161" lon="5.43687">
        <ele>458</ele>
        <time>2022-10-26T15:42:26Z</time>
      </trkpt>
      <trkpt lat="45.4112" lon="5.43712">
        <ele>458</ele>
        <time>2022-10-26T15:42:26Z</time>
      </trkpt>
      <trkpt lat="45.41015" lon="5.43729">
        <ele>458</ele>
        <time>2022-10-26T15:42:26Z</time>
      </trkpt>
      <trkpt lat="45.40899" lon="5.43752">
        <ele>458</ele>
        <time>2022-10-26T15:42:26Z</time>
      </trkpt>
      <trkpt lat="45.40811" lon="5.43806">
        <ele>458</ele>
        <time>2022-10-26T15:42:26Z</time>
      </trkpt>
      <trkpt lat="45.40783" lon="5.43848">
        <ele>458</ele>
        <time>2022-10-26T15:42:26Z</time>
      </trkpt>
      <trkpt lat="45.40767" lon="5.43853">
        <ele>458</ele>
        <time>2022-10-26T15:42:26Z</time>
      </trkpt>
      <trkpt lat="45.40738" lon="5.43823">
        <ele>458</ele>
        <time>2022-10-26T15:42:26Z</time>
      </trkpt>
      <trkpt lat="45.4071" lon="5.43807">
        <ele>458</ele>
        <time>2022-10-26T15:42:26Z</time>
      </trkpt>
      <trkpt lat="45.40671" lon="5.43788">
        <ele>458</ele>
        <time>2022-10-26T15:42:26Z</time>
      </trkpt>
      <trkpt lat="45.40717" lon="5.43661">
        <ele>458</ele>
        <time>2022-10-26T15:42:26Z</time>
      </trkpt>
      <trkpt lat="45.40737" lon="5.43607">
        <ele>458</ele>
        <time>2022-10-26T15:42:26Z</time>
      </trkpt>
      <trkpt lat="45.40739" lon="5.43575">
        <ele>458</ele>
        <time>2022-10-26T15:42:26Z</time>
      </trkpt>
      <trkpt lat="45.40707" lon="5.43428">
        <ele>458</ele>
        <time>2022-10-26T15:42:26Z</time>
      </trkpt>
      <trkpt lat="45.40695" lon="5.43404">
        <ele>458</ele>
        <time>2022-10-26T15:42:26Z</time>
      </trkpt>
      <trkpt lat="45.40664" lon="5.43288">
        <ele>458</ele>
        <time>2022-10-26T15:42:26Z</time>
      </trkpt>
      <trkpt lat="45.40658" lon="5.43265">
        <ele>458</ele>
        <time>2022-10-26T15:42:26Z</time>
      </trkpt>
      <trkpt lat="45.40659" lon="5.43223">
        <ele>458</ele>
        <time>2022-10-26T15:42:26Z</time>
      </trkpt>
      <trkpt lat="45.40684" lon="5.43153">
        <ele>458</ele>
        <time>2022-10-26T15:42:26Z</time>
      </trkpt>
      <trkpt lat="45.40691" lon="5.43129">
        <ele>458</ele>
        <time>2022-10-26T15:42:26Z</time>
      </trkpt>
      <trkpt lat="45.40701" lon="5.43076">
        <ele>458</ele>
        <time>2022-10-26T15:42:26Z</time>
      </trkpt>
      <trkpt lat="45.40704" lon="5.43049">
        <ele>458</ele>
        <time>2022-10-26T15:42:26Z</time>
      </trkpt>
      <trkpt lat="45.40705" lon="5.43024">
        <ele>458</ele>
        <time>2022-10-26T15:42:26Z</time>
      </trkpt>
      <trkpt lat="45.40713" lon="5.43008">
        <ele>458</ele>
        <time>2022-10-26T15:42:26Z</time>
      </trkpt>
      <trkpt lat="45.40712" lon="5.4297">
        <ele>458</ele>
        <time>2022-10-26T15:42:26Z</time>
      </trkpt>
      <trkpt lat="45.40719" lon="5.42853">
        <ele>458</ele>
        <time>2022-10-26T15:42:26Z</time>
      </trkpt>
      <trkpt lat="45.40731" lon="5.42822">
        <ele>458</ele>
        <time>2022-10-26T15:42:26Z</time>
      </trkpt>
      <trkpt lat="45.40743" lon="5.42778">
        <ele>458</ele>
        <time>2022-10-26T15:42:26Z</time>
      </trkpt>
      <trkpt lat="45.40745" lon="5.42758">
        <ele>458</ele>
        <time>2022-10-26T15:42:26Z</time>
      </trkpt>
      <trkpt lat="45.40723" lon="5.4267">
        <ele>457</ele>
        <time>2022-10-26T15:42:26Z</time>
      </trkpt>
      <trkpt lat="45.40705" lon="5.42622">
        <ele>457</ele>
        <time>2022-10-26T15:42:26Z</time>
      </trkpt>
      <trkpt lat="45.40694" lon="5.42576">
        <ele>457</ele>
        <time>2022-10-26T15:42:26Z</time>
      </trkpt>
      <trkpt lat="45.40676" lon="5.42541">
        <ele>457</ele>
        <time>2022-10-26T15:42:26Z</time>
      </trkpt>
      <trkpt lat="45.40646" lon="5.42414">
        <ele>457</ele>
        <time>2022-10-26T15:42:26Z</time>
      </trkpt>
      <trkpt lat="45.40639" lon="5.42384">
        <ele>457</ele>
        <time>2022-10-26T15:42:26Z</time>
      </trkpt>
      <trkpt lat="45.40633" lon="5.4237">
        <ele>457</ele>
        <time>2022-10-26T15:42:26Z</time>
      </trkpt>
      <trkpt lat="45.40606" lon="5.42349">
        <ele>457</ele>
        <time>2022-10-26T15:42:26Z</time>
      </trkpt>
      <trkpt lat="45.40601" lon="5.42336">
        <ele>457</ele>
        <time>2022-10-26T15:42:26Z</time>
      </trkpt>
      <trkpt lat="45.40567" lon="5.42322">
        <ele>457</ele>
        <time>2022-10-26T15:42:26Z</time>
      </trkpt>
      <trkpt lat="45.40533" lon="5.423">
        <ele>457</ele>
        <time>2022-10-26T15:42:26Z</time>
      </trkpt>
      <trkpt lat="45.40507" lon="5.42284">
        <ele>457</ele>
        <time>2022-10-26T15:42:26Z</time>
      </trkpt>
      <trkpt lat="45.40462" lon="5.42211">
        <ele>457</ele>
        <time>2022-10-26T15:42:26Z</time>
      </trkpt>
      <trkpt lat="45.40424" lon="5.42145">
        <ele>457</ele>
        <time>2022-10-26T15:42:26Z</time>
      </trkpt>
      <trkpt lat="45.40406" lon="5.42109">
        <ele>457</ele>
        <time>2022-10-26T15:42:26Z</time>
      </trkpt>
      <trkpt lat="45.40393" lon="5.42081">
        <ele>457</ele>
        <time>2022-10-26T15:42:26Z</time>
      </trkpt>
      <trkpt lat="45.40366" lon="5.42059">
        <ele>457</ele>
        <time>2022-10-26T15:42:26Z</time>
      </trkpt>
      <trkpt lat="45.4036" lon="5.42036">
        <ele>457</ele>
        <time>2022-10-26T15:42:26Z</time>
      </trkpt>
      <trkpt lat="45.40352" lon="5.42026">
        <ele>457</ele>
        <time>2022-10-26T15:42:26Z</time>
      </trkpt>
      <trkpt lat="45.40326" lon="5.42027">
        <ele>457</ele>
        <time>2022-10-26T15:42:26Z</time>
      </trkpt>
      <trkpt lat="45.40301" lon="5.41997">
        <ele>457</ele>
        <time>2022-10-26T15:42:26Z</time>
      </trkpt>
      <trkpt lat="45.40252" lon="5.41969">
        <ele>457</ele>
        <time>2022-10-26T15:42:26Z</time>
      </trkpt>
      <trkpt lat="45.40181" lon="5.41928">
        <ele>457</ele>
        <time>2022-10-26T15:42:26Z</time>
      </trkpt>
      <trkpt lat="45.40159" lon="5.41907">
        <ele>457</ele>
        <time>2022-10-26T15:42:26Z</time>
      </trkpt>
      <trkpt lat="45.40117" lon="5.41856">
        <ele>457</ele>
        <time>2022-10-26T15:42:26Z</time>
      </trkpt>
      <trkpt lat="45.40099" lon="5.41785">
        <ele>457</ele>
        <time>2022-10-26T15:42:26Z</time>
      </trkpt>
      <trkpt lat="45.40096" lon="5.41737">
        <ele>457</ele>
        <time>2022-10-26T15:42:26Z</time>
      </trkpt>
      <trkpt lat="45.40096" lon="5.41679">
        <ele>457</ele>
        <time>2022-10-26T15:42:26Z</time>
      </trkpt>
      <trkpt lat="45.40102" lon="5.41649">
        <ele>457</ele>
        <time>2022-10-26T15:42:26Z</time>
      </trkpt>
      <trkpt lat="45.40106" lon="5.41611">
        <ele>457</ele>
        <time>2022-10-26T15:42:26Z</time>
      </trkpt>
      <trkpt lat="45.40103" lon="5.41589">
        <ele>457</ele>
        <time>2022-10-26T15:42:26Z</time>
      </trkpt>
      <trkpt lat="45.40134" lon="5.41543">
        <ele>457</ele>
        <time>2022-10-26T15:42:26Z</time>
      </trkpt>
      <trkpt lat="45.40117" lon="5.41354">
        <ele>456</ele>
        <time>2022-10-26T15:42:26Z</time>
      </trkpt>
      <trkpt lat="45.40111" lon="5.41324">
        <ele>456</ele>
        <time>2022-10-26T15:42:26Z</time>
      </trkpt>
      <trkpt lat="45.40079" lon="5.41264">
        <ele>456</ele>
        <time>2022-10-26T15:42:26Z</time>
      </trkpt>
      <trkpt lat="45.40067" lon="5.41241">
        <ele>456</ele>
        <time>2022-10-26T15:42:26Z</time>
      </trkpt>
      <trkpt lat="45.40042" lon="5.41161">
        <ele>456</ele>
        <time>2022-10-26T15:42:26Z</time>
      </trkpt>
      <trkpt lat="45.40036" lon="5.41133">
        <ele>456</ele>
        <time>2022-10-26T15:42:26Z</time>
      </trkpt>
      <trkpt lat="45.40033" lon="5.41098">
        <ele>456</ele>
        <time>2022-10-26T15:42:26Z</time>
      </trkpt>
      <trkpt lat="45.40034" lon="5.41059">
        <ele>456</ele>
        <time>2022-10-26T15:42:26Z</time>
      </trkpt>
      <trkpt lat="45.40026" lon="5.40996">
        <ele>456</ele>
        <time>2022-10-26T15:42:26Z</time>
      </trkpt>
      <trkpt lat="45.4001" lon="5.40942">
        <ele>456</ele>
        <time>2022-10-26T15:42:26Z</time>
      </trkpt>
      <trkpt lat="45.39986" lon="5.40892">
        <ele>456</ele>
        <time>2022-10-26T15:42:26Z</time>
      </trkpt>
      <trkpt lat="45.39962" lon="5.40811">
        <ele>456</ele>
        <time>2022-10-26T15:42:26Z</time>
      </trkpt>
      <trkpt lat="45.39928" lon="5.40724">
        <ele>456</ele>
        <time>2022-10-26T15:42:26Z</time>
      </trkpt>
      <trkpt lat="45.39894" lon="5.40661">
        <ele>456</ele>
        <time>2022-10-26T15:42:26Z</time>
      </trkpt>
      <trkpt lat="45.39878" lon="5.40621">
        <ele>456</ele>
        <time>2022-10-26T15:42:26Z</time>
      </trkpt>
      <trkpt lat="45.39808" lon="5.4036">
        <ele>456</ele>
        <time>2022-10-26T15:42:26Z</time>
      </trkpt>
      <trkpt lat="45.39765" lon="5.40186">
        <ele>456</ele>
        <time>2022-10-26T15:42:26Z</time>
      </trkpt>
      <trkpt lat="45.39732" lon="5.4006">
        <ele>456</ele>
        <time>2022-10-26T15:42:26Z</time>
      </trkpt>
      <trkpt lat="45.397" lon="5.39966">
        <ele>456</ele>
        <time>2022-10-26T15:42:26Z</time>
      </trkpt>
      <trkpt lat="45.3968" lon="5.39909">
        <ele>456</ele>
        <time>2022-10-26T15:42:26Z</time>
      </trkpt>
      <trkpt lat="45.39657" lon="5.39842">
        <ele>456</ele>
        <time>2022-10-26T15:42:26Z</time>
      </trkpt>
      <trkpt lat="45.39659" lon="5.39793">
        <ele>456</ele>
        <time>2022-10-26T15:42:26Z</time>
      </trkpt>
      <trkpt lat="45.39653" lon="5.39696">
        <ele>456</ele>
        <time>2022-10-26T15:42:26Z</time>
      </trkpt>
      <trkpt lat="45.39646" lon="5.39474">
        <ele>456</ele>
        <time>2022-10-26T15:42:26Z</time>
      </trkpt>
      <trkpt lat="45.39644" lon="5.39353">
        <ele>456</ele>
        <time>2022-10-26T15:42:26Z</time>
      </trkpt>
      <trkpt lat="45.39664" lon="5.39222">
        <ele>456</ele>
        <time>2022-10-26T15:42:26Z</time>
      </trkpt>
      <trkpt lat="45.39663" lon="5.39127">
        <ele>456</ele>
        <time>2022-10-26T15:42:26Z</time>
      </trkpt>
      <trkpt lat="45.39659" lon="5.39075">
        <ele>456</ele>
        <time>2022-10-26T15:42:26Z</time>
      </trkpt>
      <trkpt lat="45.39659" lon="5.39034">
        <ele>456</ele>
        <time>2022-10-26T15:42:26Z</time>
      </trkpt>
      <trkpt lat="45.39664" lon="5.39005">
        <ele>456</ele>
        <time>2022-10-26T15:42:26Z</time>
      </trkpt>
      <trkpt lat="45.39647" lon="5.38896">
        <ele>456</ele>
        <time>2022-10-26T15:42:26Z</time>
      </trkpt>
      <trkpt lat="45.39634" lon="5.38797">
        <ele>456</ele>
        <time>2022-10-26T15:42:26Z</time>
      </trkpt>
      <trkpt lat="45.39615" lon="5.38671">
        <ele>456</ele>
        <time>2022-10-26T15:42:26Z</time>
      </trkpt>
      <trkpt lat="45.39615" lon="5.38546">
        <ele>454</ele>
        <time>2022-10-26T15:42:26Z</time>
      </trkpt>
      <trkpt lat="45.39588" lon="5.38388">
        <ele>452</ele>
        <time>2022-10-26T15:42:26Z</time>
      </trkpt>
      <trkpt lat="45.39561" lon="5.38317">
        <ele>452</ele>
        <time>2022-10-26T15:42:26Z</time>
      </trkpt>
      <trkpt lat="45.39522" lon="5.38111">
        <ele>452</ele>
        <time>2022-10-26T15:42:26Z</time>
      </trkpt>
      <trkpt lat="45.39473" lon="5.37984">
        <ele>453</ele>
        <time>2022-10-26T15:42:26Z</time>
      </trkpt>
      <trkpt lat="45.39463" lon="5.37885">
        <ele>452</ele>
        <time>2022-10-26T15:42:26Z</time>
      </trkpt>
      <trkpt lat="45.39455" lon="5.37857">
        <ele>451</ele>
        <time>2022-10-26T15:42:26Z</time>
      </trkpt>
      <trkpt lat="45.39409" lon="5.37774">
        <ele>451</ele>
        <time>2022-10-26T15:42:26Z</time>
      </trkpt>
      <trkpt lat="45.39407" lon="5.37584">
        <ele>449</ele>
        <time>2022-10-26T15:42:26Z</time>
      </trkpt>
      <trkpt lat="45.39392" lon="5.37177">
        <ele>443</ele>
        <time>2022-10-26T15:42:26Z</time>
      </trkpt>
      <trkpt lat="45.39473" lon="5.36898">
        <ele>444</ele>
        <time>2022-10-26T15:42:26Z</time>
      </trkpt>
      <trkpt lat="45.39493" lon="5.36703">
        <ele>443</ele>
        <time>2022-10-26T15:42:26Z</time>
      </trkpt>
      <trkpt lat="45.39487" lon="5.36642">
        <ele>442</ele>
        <time>2022-10-26T15:42:26Z</time>
      </trkpt>
      <trkpt lat="45.3946" lon="5.36493">
        <ele>438</ele>
        <time>2022-10-26T15:42:26Z</time>
      </trkpt>
      <trkpt lat="45.39427" lon="5.36411">
        <ele>435</ele>
        <time>2022-10-26T15:42:26Z</time>
      </trkpt>
      <trkpt lat="45.3942" lon="5.36317">
        <ele>432</ele>
        <time>2022-10-26T15:42:26Z</time>
      </trkpt>
      <trkpt lat="45.39348" lon="5.36119">
        <ele>431</ele>
        <time>2022-10-26T15:42:26Z</time>
      </trkpt>
      <trkpt lat="45.39266" lon="5.35948">
        <ele>430</ele>
        <time>2022-10-26T15:42:26Z</time>
      </trkpt>
      <trkpt lat="45.39302" lon="5.35878">
        <ele>437</ele>
        <time>2022-10-26T15:42:26Z</time>
      </trkpt>
      <trkpt lat="45.39349" lon="5.35907">
        <ele>438</ele>
        <time>2022-10-26T15:42:26Z</time>
      </trkpt>
      <trkpt lat="45.39383" lon="5.35927">
        <ele>446</ele>
        <time>2022-10-26T15:42:26Z</time>
      </trkpt>
      <trkpt lat="45.39467" lon="5.3592">
        <ele>447</ele>
        <time>2022-10-26T15:42:26Z</time>
      </trkpt>
      <trkpt lat="45.39452" lon="5.35739">
        <ele>453</ele>
        <time>2022-10-26T15:42:26Z</time>
      </trkpt>
      <trkpt lat="45.39449" lon="5.35674">
        <ele>454</ele>
        <time>2022-10-26T15:42:26Z</time>
      </trkpt>
      <trkpt lat="45.39488" lon="5.35667">
        <ele>453</ele>
        <time>2022-10-26T15:42:26Z</time>
      </trkpt>
      <trkpt lat="45.39439" lon="5.35088">
        <ele>455</ele>
        <time>2022-10-26T15:42:26Z</time>
      </trkpt>
      <trkpt lat="45.39413" lon="5.34826">
        <ele>462</ele>
        <time>2022-10-26T15:42:26Z</time>
      </trkpt>
      <trkpt lat="45.39402" lon="5.34733">
        <ele>457</ele>
        <time>2022-10-26T15:42:26Z</time>
      </trkpt>
      <trkpt lat="45.3942" lon="5.3445">
        <ele>445</ele>
        <time>2022-10-26T15:42:26Z</time>
      </trkpt>
      <trkpt lat="45.39418" lon="5.34435">
        <ele>444</ele>
        <time>2022-10-26T15:42:26Z</time>
      </trkpt>
      <trkpt lat="45.39411" lon="5.34422">
        <ele>444</ele>
        <time>2022-10-26T15:42:26Z</time>
      </trkpt>
      <trkpt lat="45.39392" lon="5.34314">
        <ele>442</ele>
        <time>2022-10-26T15:42:26Z</time>
      </trkpt>
      <trkpt lat="45.3941" lon="5.34261">
        <ele>443</ele>
        <time>2022-10-26T15:42:26Z</time>
      </trkpt>
      <trkpt lat="45.39421" lon="5.34193">
        <ele>446</ele>
        <time>2022-10-26T15:42:26Z</time>
      </trkpt>
      <trkpt lat="45.39431" lon="5.34117">
        <ele>448</ele>
        <time>2022-10-26T15:42:26Z</time>
      </trkpt>
      <trkpt lat="45.39607" lon="5.34109">
        <ele>446</ele>
        <time>2022-10-26T15:42:26Z</time>
      </trkpt>
      <trkpt lat="45.39611" lon="5.34061">
        <ele>442</ele>
        <time>2022-10-26T15:42:26Z</time>
      </trkpt>
      <trkpt lat="45.39627" lon="5.33998">
        <ele>437</ele>
        <time>2022-10-26T15:42:26Z</time>
      </trkpt>
      <trkpt lat="45.39667" lon="5.33974">
        <ele>434</ele>
        <time>2022-10-26T15:42:26Z</time>
      </trkpt>
      <trkpt lat="45.39672" lon="5.3396">
        <ele>433</ele>
        <time>2022-10-26T15:42:26Z</time>
      </trkpt>
      <trkpt lat="45.39683" lon="5.33853">
        <ele>432</ele>
        <time>2022-10-26T15:42:26Z</time>
      </trkpt>
      <trkpt lat="45.39692" lon="5.33825">
        <ele>433</ele>
        <time>2022-10-26T15:42:26Z</time>
      </trkpt>
      <trkpt lat="45.39717" lon="5.33795">
        <ele>436</ele>
        <time>2022-10-26T15:42:26Z</time>
      </trkpt>
      <trkpt lat="45.39721" lon="5.3378">
        <ele>437</ele>
        <time>2022-10-26T15:42:26Z</time>
      </trkpt>
      <trkpt lat="45.39722" lon="5.33731">
        <ele>437</ele>
        <time>2022-10-26T15:42:26Z</time>
      </trkpt>
      <trkpt lat="45.39728" lon="5.33592">
        <ele>433</ele>
        <time>2022-10-26T15:42:26Z</time>
      </trkpt>
      <trkpt lat="45.39743" lon="5.33531">
        <ele>435</ele>
        <time>2022-10-26T15:42:26Z</time>
      </trkpt>
      <trkpt lat="45.39753" lon="5.33503">
        <ele>438</ele>
        <time>2022-10-26T15:42:26Z</time>
      </trkpt>
      <trkpt lat="45.39755" lon="5.33487">
        <ele>438</ele>
        <time>2022-10-26T15:42:26Z</time>
      </trkpt>
      <trkpt lat="45.39746" lon="5.33397">
        <ele>435</ele>
        <time>2022-10-26T15:42:26Z</time>
      </trkpt>
      <trkpt lat="45.39748" lon="5.33382">
        <ele>435</ele>
        <time>2022-10-26T15:42:26Z</time>
      </trkpt>
      <trkpt lat="45.39758" lon="5.33354">
        <ele>436</ele>
        <time>2022-10-26T15:42:26Z</time>
      </trkpt>
      <trkpt lat="45.39766" lon="5.33342">
        <ele>437</ele>
        <time>2022-10-26T15:42:26Z</time>
      </trkpt>
      <trkpt lat="45.39775" lon="5.33332">
        <ele>439</ele>
        <time>2022-10-26T15:42:26Z</time>
      </trkpt>
      <trkpt lat="45.39792" lon="5.33314">
        <ele>443</ele>
        <time>2022-10-26T15:42:26Z</time>
      </trkpt>
      <trkpt lat="45.39794" lon="5.33299">
        <ele>445</ele>
        <time>2022-10-26T15:42:26Z</time>
      </trkpt>
      <trkpt lat="45.39792" lon="5.33284">
        <ele>445</ele>
        <time>2022-10-26T15:42:26Z</time>
      </trkpt>
      <trkpt lat="45.39787" lon="5.33271">
        <ele>445</ele>
        <time>2022-10-26T15:42:26Z</time>
      </trkpt>
      <trkpt lat="45.39779" lon="5.33261">
        <ele>444</ele>
        <time>2022-10-26T15:42:26Z</time>
      </trkpt>
      <trkpt lat="45.39766" lon="5.33235">
        <ele>443</ele>
        <time>2022-10-26T15:42:26Z</time>
      </trkpt>
      <trkpt lat="45.39738" lon="5.33187">
        <ele>439</ele>
        <time>2022-10-26T15:42:26Z</time>
      </trkpt>
      <trkpt lat="45.39705" lon="5.33096">
        <ele>438</ele>
        <time>2022-10-26T15:42:26Z</time>
      </trkpt>
      <trkpt lat="45.39635" lon="5.32978">
        <ele>435</ele>
        <time>2022-10-26T15:42:26Z</time>
      </trkpt>
      <trkpt lat="45.39613" lon="5.32703">
        <ele>440</ele>
        <time>2022-10-26T15:42:26Z</time>
      </trkpt>
      <trkpt lat="45.3962" lon="5.32657">
        <ele>442</ele>
        <time>2022-10-26T15:42:26Z</time>
      </trkpt>
      <trkpt lat="45.39626" lon="5.32645">
        <ele>443</ele>
        <time>2022-10-26T15:42:26Z</time>
      </trkpt>
      <trkpt lat="45.3963" lon="5.3263">
        <ele>444</ele>
        <time>2022-10-26T15:42:26Z</time>
      </trkpt>
      <trkpt lat="45.39631" lon="5.32614">
        <ele>444</ele>
        <time>2022-10-26T15:42:26Z</time>
      </trkpt>
      <trkpt lat="45.39629" lon="5.32598">
        <ele>444</ele>
        <time>2022-10-26T15:42:26Z</time>
      </trkpt>
      <trkpt lat="45.39622" lon="5.32586">
        <ele>443</ele>
        <time>2022-10-26T15:42:26Z</time>
      </trkpt>
      <trkpt lat="45.39607" lon="5.32491">
        <ele>441</ele>
        <time>2022-10-26T15:42:26Z</time>
      </trkpt>
      <trkpt lat="45.39611" lon="5.32461">
        <ele>441</ele>
        <time>2022-10-26T15:42:26Z</time>
      </trkpt>
      <trkpt lat="45.396" lon="5.32383">
        <ele>439</ele>
        <time>2022-10-26T15:42:26Z</time>
      </trkpt>
      <trkpt lat="45.39599" lon="5.32215">
        <ele>438</ele>
        <time>2022-10-26T15:42:26Z</time>
      </trkpt>
      <trkpt lat="45.3961" lon="5.32205">
        <ele>438</ele>
        <time>2022-10-26T15:42:26Z</time>
      </trkpt>
      <trkpt lat="45.39664" lon="5.32181">
        <ele>438</ele>
        <time>2022-10-26T15:42:26Z</time>
      </trkpt>
      <trkpt lat="45.39693" lon="5.32158">
        <ele>440</ele>
        <time>2022-10-26T15:42:26Z</time>
      </trkpt>
      <trkpt lat="45.39725" lon="5.32094">
        <ele>440</ele>
        <time>2022-10-26T15:42:26Z</time>
      </trkpt>
      <trkpt lat="45.39734" lon="5.32086">
        <ele>441</ele>
        <time>2022-10-26T15:42:26Z</time>
      </trkpt>
      <trkpt lat="45.39771" lon="5.32062">
        <ele>448</ele>
        <time>2022-10-26T15:42:26Z</time>
      </trkpt>
      <trkpt lat="45.39778" lon="5.32049">
        <ele>450</ele>
        <time>2022-10-26T15:42:26Z</time>
      </trkpt>
      <trkpt lat="45.39795" lon="5.32026">
        <ele>453</ele>
        <time>2022-10-26T15:42:26Z</time>
      </trkpt>
      <trkpt lat="45.39801" lon="5.32014">
        <ele>455</ele>
        <time>2022-10-26T15:42:26Z</time>
      </trkpt>
      <trkpt lat="45.39834" lon="5.31941">
        <ele>457</ele>
        <time>2022-10-26T15:42:26Z</time>
      </trkpt>
      <trkpt lat="45.39855" lon="5.31646">
        <ele>464</ele>
        <time>2022-10-26T15:42:26Z</time>
      </trkpt>
      <trkpt lat="45.3987" lon="5.31587">
        <ele>466</ele>
        <time>2022-10-26T15:42:26Z</time>
      </trkpt>
      <trkpt lat="45.39877" lon="5.31574">
        <ele>467</ele>
        <time>2022-10-26T15:42:26Z</time>
      </trkpt>
      <trkpt lat="45.39918" lon="5.31548">
        <ele>471</ele>
        <time>2022-10-26T15:42:26Z</time>
      </trkpt>
      <trkpt lat="45.39929" lon="5.31543">
        <ele>473</ele>
        <time>2022-10-26T15:42:26Z</time>
      </trkpt>
      <trkpt lat="45.39952" lon="5.31508">
        <ele>476</ele>
        <time>2022-10-26T15:42:26Z</time>
      </trkpt>
      <trkpt lat="45.39966" lon="5.31464">
        <ele>477</ele>
        <time>2022-10-26T15:42:26Z</time>
      </trkpt>
      <trkpt lat="45.39991" lon="5.31281">
        <ele>480</ele>
        <time>2022-10-26T15:42:26Z</time>
      </trkpt>
      <trkpt lat="45.39977" lon="5.31104">
        <ele>480</ele>
        <time>2022-10-26T15:42:26Z</time>
      </trkpt>
      <trkpt lat="45.39955" lon="5.31055">
        <ele>478</ele>
        <time>2022-10-26T15:42:26Z</time>
      </trkpt>
      <trkpt lat="45.39954" lon="5.30639">
        <ele>474</ele>
        <time>2022-10-26T15:42:26Z</time>
      </trkpt>
      <trkpt lat="45.39961" lon="5.30629">
        <ele>474</ele>
        <time>2022-10-26T15:42:26Z</time>
      </trkpt>
      <trkpt lat="45.39971" lon="5.30626">
        <ele>474</ele>
        <time>2022-10-26T15:42:26Z</time>
      </trkpt>
      <trkpt lat="45.39979" lon="5.30618">
        <ele>474</ele>
        <time>2022-10-26T15:42:26Z</time>
      </trkpt>
      <trkpt lat="45.39981" lon="5.30567">
        <ele>473</ele>
        <time>2022-10-26T15:42:26Z</time>
      </trkpt>
      <trkpt lat="45.39979" lon="5.3047">
        <ele>469</ele>
        <time>2022-10-26T15:42:26Z</time>
      </trkpt>
      <trkpt lat="45.39987" lon="5.30423">
        <ele>466</ele>
        <time>2022-10-26T15:42:26Z</time>
      </trkpt>
      <trkpt lat="45.39987" lon="5.30408">
        <ele>464</ele>
        <time>2022-10-26T15:42:26Z</time>
      </trkpt>
      <trkpt lat="45.39985" lon="5.30392">
        <ele>462</ele>
        <time>2022-10-26T15:42:26Z</time>
      </trkpt>
      <trkpt lat="45.39982" lon="5.30377">
        <ele>460</ele>
        <time>2022-10-26T15:42:26Z</time>
      </trkpt>
      <trkpt lat="45.39962" lon="5.30336">
        <ele>455</ele>
        <time>2022-10-26T15:42:26Z</time>
      </trkpt>
      <trkpt lat="45.39954" lon="5.30326">
        <ele>453</ele>
        <time>2022-10-26T15:42:26Z</time>
      </trkpt>
      <trkpt lat="45.39944" lon="5.30319">
        <ele>453</ele>
        <time>2022-10-26T15:42:26Z</time>
      </trkpt>
      <trkpt lat="45.39944" lon="5.30305">
        <ele>451</ele>
        <time>2022-10-26T15:42:26Z</time>
      </trkpt>
      <trkpt lat="45.39948" lon="5.3029">
        <ele>449</ele>
        <time>2022-10-26T15:42:26Z</time>
      </trkpt>
      <trkpt lat="45.39955" lon="5.30276">
        <ele>447</ele>
        <time>2022-10-26T15:42:26Z</time>
      </trkpt>
      <trkpt lat="45.39958" lon="5.3026">
        <ele>445</ele>
        <time>2022-10-26T15:42:26Z</time>
      </trkpt>
      <trkpt lat="45.39956" lon="5.30229">
        <ele>442</ele>
        <time>2022-10-26T15:42:26Z</time>
      </trkpt>
      <trkpt lat="45.39948" lon="5.30185">
        <ele>438</ele>
        <time>2022-10-26T15:42:26Z</time>
      </trkpt>
      <trkpt lat="45.39949" lon="5.30116">
        <ele>441</ele>
        <time>2022-10-26T15:42:26Z</time>
      </trkpt>
      <trkpt lat="45.39944" lon="5.30085">
        <ele>443</ele>
        <time>2022-10-26T15:42:26Z</time>
      </trkpt>
      <trkpt lat="45.39825" lon="5.29928">
        <ele>450</ele>
        <time>2022-10-26T15:42:26Z</time>
      </trkpt>
      <trkpt lat="45.39801" lon="5.29871">
        <ele>448</ele>
        <time>2022-10-26T15:42:26Z</time>
      </trkpt>
      <trkpt lat="45.39794" lon="5.29806">
        <ele>447</ele>
        <time>2022-10-26T15:42:26Z</time>
      </trkpt>
      <trkpt lat="45.39771" lon="5.2919">
        <ele>445</ele>
        <time>2022-10-26T15:42:26Z</time>
      </trkpt>
      <trkpt lat="45.39761" lon="5.29144">
        <ele>440</ele>
        <time>2022-10-26T15:42:26Z</time>
      </trkpt>
      <trkpt lat="45.39761" lon="5.29113">
        <ele>438</ele>
        <time>2022-10-26T15:42:26Z</time>
      </trkpt>
      <trkpt lat="45.39768" lon="5.29065">
        <ele>437</ele>
        <time>2022-10-26T15:42:26Z</time>
      </trkpt>
      <trkpt lat="45.39765" lon="5.29021">
        <ele>436</ele>
        <time>2022-10-26T15:42:26Z</time>
      </trkpt>
      <trkpt lat="45.39742" lon="5.28949">
        <ele>439</ele>
        <time>2022-10-26T15:42:26Z</time>
      </trkpt>
      <trkpt lat="45.39732" lon="5.28945">
        <ele>438</ele>
        <time>2022-10-26T15:42:26Z</time>
      </trkpt>
      <trkpt lat="45.39721" lon="5.28944">
        <ele>437</ele>
        <time>2022-10-26T15:42:26Z</time>
      </trkpt>
      <trkpt lat="45.39692" lon="5.28927">
        <ele>435</ele>
        <time>2022-10-26T15:42:26Z</time>
      </trkpt>
      <trkpt lat="45.39669" lon="5.28876">
        <ele>432</ele>
        <time>2022-10-26T15:42:26Z</time>
      </trkpt>
      <trkpt lat="45.39641" lon="5.28871">
        <ele>428</ele>
        <time>2022-10-26T15:42:26Z</time>
      </trkpt>
      <trkpt lat="45.39625" lon="5.28868">
        <ele>426</ele>
        <time>2022-10-26T15:42:26Z</time>
      </trkpt>
      <trkpt lat="45.39605" lon="5.28865">
        <ele>422</ele>
        <time>2022-10-26T15:42:26Z</time>
      </trkpt>
      <trkpt lat="45.39572" lon="5.28861">
        <ele>417</ele>
        <time>2022-10-26T15:42:26Z</time>
      </trkpt>
      <trkpt lat="45.39572" lon="5.28794">
        <ele>414</ele>
        <time>2022-10-26T15:42:26Z</time>
      </trkpt>
      <trkpt lat="45.39595" lon="5.28573">
        <ele>414</ele>
        <time>2022-10-26T15:42:26Z</time>
      </trkpt>
      <trkpt lat="45.39599" lon="5.28559">
        <ele>415</ele>
        <time>2022-10-26T15:42:26Z</time>
      </trkpt>
      <trkpt lat="45.39616" lon="5.28539">
        <ele>419</ele>
        <time>2022-10-26T15:42:26Z</time>
      </trkpt>
      <trkpt lat="45.39626" lon="5.28534">
        <ele>421</ele>
        <time>2022-10-26T15:42:26Z</time>
      </trkpt>
      <trkpt lat="45.39634" lon="5.28524">
        <ele>423</ele>
        <time>2022-10-26T15:42:26Z</time>
      </trkpt>
      <trkpt lat="45.39641" lon="5.28513">
        <ele>425</ele>
        <time>2022-10-26T15:42:26Z</time>
      </trkpt>
      <trkpt lat="45.39642" lon="5.28498">
        <ele>426</ele>
        <time>2022-10-26T15:42:26Z</time>
      </trkpt>
      <trkpt lat="45.39593" lon="5.28215">
        <ele>425</ele>
        <time>2022-10-26T15:42:26Z</time>
      </trkpt>
      <trkpt lat="45.39593" lon="5.28198">
        <ele>426</ele>
        <time>2022-10-26T15:42:26Z</time>
      </trkpt>
      <trkpt lat="45.39598" lon="5.28185">
        <ele>427</ele>
        <time>2022-10-26T15:42:26Z</time>
      </trkpt>
      <trkpt lat="45.39617" lon="5.28169">
        <ele>431</ele>
        <time>2022-10-26T15:42:26Z</time>
      </trkpt>
      <trkpt lat="45.39623" lon="5.28156">
        <ele>432</ele>
        <time>2022-10-26T15:42:26Z</time>
      </trkpt>
      <trkpt lat="45.39624" lon="5.28125">
        <ele>433</ele>
        <time>2022-10-26T15:42:26Z</time>
      </trkpt>
      <trkpt lat="45.39621" lon="5.2811">
        <ele>432</ele>
        <time>2022-10-26T15:42:26Z</time>
      </trkpt>
      <trkpt lat="45.39593" lon="5.2802">
        <ele>428</ele>
        <time>2022-10-26T15:42:26Z</time>
      </trkpt>
      <trkpt lat="45.39616" lon="5.27806">
        <ele>426</ele>
        <time>2022-10-26T15:42:26Z</time>
      </trkpt>
      <trkpt lat="45.39611" lon="5.27776">
        <ele>424</ele>
        <time>2022-10-26T15:42:26Z</time>
      </trkpt>
      <trkpt lat="45.39587" lon="5.27722">
        <ele>420</ele>
        <time>2022-10-26T15:42:26Z</time>
      </trkpt>
      <trkpt lat="45.39591" lon="5.2764">
        <ele>421</ele>
        <time>2022-10-26T15:42:26Z</time>
      </trkpt>
      <trkpt lat="45.39604" lon="5.27533">
        <ele>418</ele>
        <time>2022-10-26T15:42:26Z</time>
      </trkpt>
      <trkpt lat="45.39603" lon="5.2752">
        <ele>418</ele>
        <time>2022-10-26T15:42:26Z</time>
      </trkpt>
      <trkpt lat="45.39575" lon="5.27506">
        <ele>415</ele>
        <time>2022-10-26T15:42:26Z</time>
      </trkpt>
      <trkpt lat="45.39565" lon="5.27495">
        <ele>414</ele>
        <time>2022-10-26T15:42:26Z</time>
      </trkpt>
      <trkpt lat="45.39558" lon="5.27483">
        <ele>412</ele>
        <time>2022-10-26T15:42:26Z</time>
      </trkpt>
      <trkpt lat="45.39541" lon="5.27425">
        <ele>407</ele>
        <time>2022-10-26T15:42:26Z</time>
      </trkpt>
      <trkpt lat="45.3953" lon="5.2732">
        <ele>399</ele>
        <time>2022-10-26T15:42:26Z</time>
      </trkpt>
      <trkpt lat="45.39501" lon="5.26858">
        <ele>399</ele>
        <time>2022-10-26T15:42:26Z</time>
      </trkpt>
      <trkpt lat="45.39496" lon="5.26762">
        <ele>401</ele>
        <time>2022-10-26T15:42:26Z</time>
      </trkpt>
      <trkpt lat="45.39476" lon="5.26484">
        <ele>403</ele>
        <time>2022-10-26T15:42:26Z</time>
      </trkpt>
      <trkpt lat="45.39485" lon="5.26425">
        <ele>405</ele>
        <time>2022-10-26T15:42:26Z</time>
      </trkpt>
      <trkpt lat="45.39516" lon="5.26258">
        <ele>409</ele>
        <time>2022-10-26T15:42:26Z</time>
      </trkpt>
      <trkpt lat="45.39513" lon="5.26254">
        <ele>409</ele>
        <time>2022-10-26T15:42:26Z</time>
      </trkpt>
      <trkpt lat="45.39499" lon="5.26217">
        <ele>405</ele>
        <time>2022-10-26T15:42:26Z</time>
      </trkpt>
      <trkpt lat="45.39421" lon="5.26016">
        <ele>386.4</ele>
        <time>2022-10-26T15:42:26Z</time>
      </trkpt>
    </trkseg>
  </trk>
</gpx>